Location: Newark
(19.2833°N, 166.6000°W)
Time: 08:01:53
(UTC+00:00)

Envisat - Visible Passes

Search period start: 21 January 2020 00:00
Search period end: 31 January 2020 00:00
Orbit: 764 x 766 km, 98.1° (Epoch: 21 January)

Date Brightness Start Highest point End Pass type
(mag) Time Alt. Az. Time Alt. Az. Time Alt. Az.
21 Jan 6.3 06:32:26 10° WSW 06:33:57 11° W 06:35:29 10° WNW visible
21 Jan 4.4 17:10:44 10° NNE 17:15:32 44° E 17:20:21 10° S visible
22 Jan 5.0 05:52:37 10° SSW 05:57:05 31° W 06:01:34 10° NW visible
22 Jan 6.1 16:35:37 10° ENE 16:38:43 16° E 16:41:49 10° SE visible
23 Jan 3.1 05:15:15 10° SSE 05:20:20 86° WSW 05:25:25 10° NNW visible
24 Jan 6.1 06:19:39 10° SW 06:22:37 16° W 06:25:36 10° WNW visible
24 Jan 5.0 16:59:43 10° NE 17:04:15 32° E 17:08:45 10° SSE visible
25 Jan 4.4 05:41:01 10° S 05:45:48 42° W 05:50:35 10° NNW visible
25 Jan 6.4 16:25:36 10° ENE 16:27:23 12° E 16:29:10 10° ESE visible
27 Jan 5.7 06:07:32 10° SSW 06:11:18 21° W 06:15:05 10° NW visible
27 Jan 5.6 16:48:51 10° NE 16:52:57 24° E 16:57:00 10° SSE visible
28 Jan 3.8 05:29:32 10° S 05:34:30 57° W 05:39:29 10° NNW visible
29 Jan 4.2 17:13:32 10° NNE 17:18:27 49° E 17:23:20 10° S visible
30 Jan 5.2 05:55:41 10° SSW 05:59:59 28° W 06:04:19 10° NW visible
30 Jan 6.1 16:38:11 10° NE 16:41:38 18° E 16:45:03 10° SE visible
